Regional Weather Roundup
Issued by NWS

Home | Current Version | Previous Version | Text Only | Print | Product List | Glossary Off
Versions: 1 2 3 4 5 6 7 8 9 10 11 12 13 14 15 16 17 18 19 20 21 22 23 24 25 26 27 28 29 30 31 32 33 34 35 36 37 38 39 40 41 42 43 44 45 46 47 48 49 50

000
ASUS43 KDMX 281607
RWRIA

WEATHER ROUNDUP FOR IOWA
NATIONAL WEATHER SERVICE DES MOINES IA
1100 AM CDT TUE JUL 28 2015

NOTE: "FAIR" INDICATES FEW OR NO CLOUDS BELOW 12,000 FEET WITH NO
SIGNIFICANT WEATHER AND/OR OBSTRUCTIONS TO VISIBILITY.

* - THESE STATIONS ARE NOT NWS STATIONS...THUS NOT UNDER NWS
QUALITY CONTROL.  THEY ALSO DO NOT REPORT WEATHER SUCH
AS PRECIPITATION OR FOG.

IAZ001>003-012>014-020>022-031>034-043>046-281700-
   NORTHWEST IOWA

CITY           SKY/WX    TMP DP  RH WIND       PRES   REMARKS
CARROLL *      CLOUDY    70  70 100 SE31G45   29.80F
CHEROKEE *     CLOUDY    72  70  94 S8        29.86R
DENISON *      MOSUNNY   72  68  88 S8G18     29.81R
LE MARS *      CLOUDY    75  70  83 S14       29.85R
ORANGE CITY *  CLOUDY    72  66  83 S7        29.86R
SHELDON *      MOSUNNY   73  70  88 S12       29.85R
SIOUX CITY     PTSUNNY   74  69  85 SE7       29.84R
SPENCER        CLOUDY    74  68  81 S12       29.85F
STORM LAKE *   CLOUDY    72  70  94 SE12G21   29.86R
$$

IAZ055>058-069>071-079>083-090>094-281700-
   SOUTHWEST IOWA

CITY           SKY/WX    TMP DP  RH WIND       PRES   REMARKS
ATLANTIC *     MOSUNNY   73  70  88 E12G17    29.87F
AUDUBON *      LGT RAIN  70  68  94 SE9G22    29.88F
CLARINDA *     SUNNY     82  75  78 E12       29.92F HX  89
COUNCIL BLFS * SUNNY     77  72  83 SE15G22   29.87F
CRESTON *      DRIZZLE   75  72  88 E13       29.96F
HARLAN  *      CLOUDY    72  72 100 SE13G24   29.88F
LAMONI         PTSUNNY   84  76  76 N8        29.96R HX  93
RED OAK *      SUNNY     81  73  78 E12G23    29.89F HX  85
SHENANDOAH *   SUNNY     84  77  79 E13G18    29.88F HX  94
$$

IAZ047>049-059>061-072>074-084-281700-
   CENTRAL IOWA

CITY           SKY/WX    TMP DP  RH WIND       PRES   REMARKS
AMES           LGT RAIN  71  71 100 S12       29.92F
ANKENY *       MOSUNNY   73  72  94 NE3       29.94F
CHARITON *     PTSUNNY   77  75  94 N7        29.97S
DES MOINES     TSTM      76  71  85 NE6       29.94S
GRINNELL*      LGT RAIN  73  72  94 E9        29.98F
KNOXVILLE *    PTSUNNY   77  73  88 VRB5      29.94F
MARSHALLTOWN   CLOUDY    72  71  97 E3        29.92F
PELLA *        CLOUDY    77  77 100 N6        29.96F
PERRY *        PTSUNNY   72  70  94 SE9       29.92F
$$

IAZ004>006-015-016-023>025-035-036-281700-
   NORTH CENTRAL IOWA

CITY           SKY/WX    TMP DP  RH WIND       PRES   REMARKS
ALGONA *       SUNNY     73  70  88 S8        29.86R
CLARION *      CLOUDY    72  70  94 SE13      29.85R
ESTHERVILLE    CLOUDY    72  70  93 S10       29.85R
FORT DODGE *   CLOUDY    72  66  83 SE6       29.88R
MASON CITY     CLOUDY    73  72  96 E10       29.87F
FOREST CITY *  SUNNY     72  70  94 SE9       29.84F
IOWA FALLS *   LGT RAIN  72  70  94 SE7       29.89F
$$

IAZ007>011-017>019-026>030-037>042-050>054-066-281700-
   NORTHEAST IOWA

CITY           SKY/WX    TMP DP  RH WIND       PRES   REMARKS
CEDAR RAPIDS   PTSUNNY   79  75  87 SE5       29.97R HX  83
CHARLES CITY * MOSUNNY   73  73 100 SE14      29.90F FOG
CLINTON *      CLOUDY    73  70  88 SE6       30.01S
DECORAH *      LGT RAIN  72  72 100 N3        29.97R
DUBUQUE        CLOUDY    75  71  87 S7        29.99F
MONTICELLO *   PTSUNNY   77  73  88 CALM      29.98R
OELWEIN *      LGT RAIN  70  68  94 SE10      29.97F
WATERLOO       TSTM      70  68  93 SE10      29.94R
$$

IAZ064-065-067-068-078-281700-
   EAST CENTRAL IOWA

CITY           SKY/WX    TMP DP  RH WIND       PRES   REMARKS
DAVENPORT      CLOUDY    75  72  90 SE10      29.97F THUNDER
IOWA CITY      PTSUNNY   81  75  82 SE9       29.96R HX  87
MT. PLEASANT * MOSUNNY   86  73  66 S7        29.95S HX  93
MUSCATINE *    MOSUNNY   84  75  74 SE12      29.95F HX  92
QUAD CITIES    TSTM      76  73  91 NE12      29.98R FOG
$$

IAZ062-063-075>077-085>089-095>099-281700-
   SOUTHEAST IOWA

CITY           SKY/WX    TMP DP  RH WIND       PRES   REMARKS
BURLINGTON     SUNNY     83  77  82 S8        29.95S HX  92
FAIRFIELD *    SUNNY     84  75  74 S9        29.94S HX  92
FORT MADISON * SUNNY     82  79  89 S3        29.96S HX  93
KEOKUK *       SUNNY     84  77  79 VRB3      29.95S HX  94
OSKALOOSA *    CLOUDY    81  75  83 NW8       29.97R HX  86
CENTERVILLE *  SUNNY     86  79  79 S8        29.96R HX  99
OTTUMWA        PTSUNNY   82  77  84 S8        29.92R HX  90
WASHINGTON *   SUNNY     84  77  79 VRB6      29.95F HX  94
$$

ABBREVIATIONS USED IN REMARKS
   TC - TEMPERATURES IN CELSIUS
  WCI - WIND CHILL INDEX
   HX - HEAT INDEX
  VSB - VISIBILITY
$$



USA.gov is the U.S. government's official web portal to all federal, state and local government web resources and services.